Wetterdaten: Freitag, 21.02.2014
Datum Zeit Temperatur Luftfeuchte Luftdruck Regen Wind Richtung Richtung Taupunkt Windchill Windben
21.02.2014 00:00 -2,2 C 91 % 1011,4 hPa 0,0 l/m 0,0 km/h (0 Bft) S-SW 202 -3,5 C -2,3 C 0,0 km/h (0 Bft)
21.02.2014 00:05 -2,0 C 91 % 1011,4 hPa 0,0 l/m 0,0 km/h (0 Bft) SW 225 -3,3 C -2,2 C 0,0 km/h (0 Bft)
21.02.2014 00:10 -2,0 C 91 % 1011,2 hPa 0,0 l/m 0,0 km/h (0 Bft) S 180 -3,3 C -2,2 C 0,0 km/h (0 Bft)
21.02.2014 00:15 -1,9 C 91 % 1011,2 hPa 0,0 l/m 0,3 km/h (0 Bft) S-SW 202 -3,2 C -2,1 C 3,1 km/h (1 Bft)
21.02.2014 00:20 -1,8 C 91 % 1011,2 hPa 0,0 l/m 0,5 km/h (0 Bft) S-SW 202 -3,1 C -1,9 C 0,0 km/h (0 Bft)
21.02.2014 00:25 -1,8 C 91 % 1011,2 hPa 0,0 l/m 0,3 km/h (0 Bft) W 270 -3,1 C -2,0 C 0,0 km/h (0 Bft)
21.02.2014 00:30 -1,6 C 92 % 1011,2 hPa 0,0 l/m 0,2 km/h (0 Bft) NW 315 -2,7 C -2,0 C 0,0 km/h (0 Bft)
21.02.2014 00:35 -1,9 C 92 % 1011,2 hPa 0,0 l/m 0,3 km/h (0 Bft) W-SW 247 -3,0 C -1,9 C 1,8 km/h (1 Bft)
21.02.2014 00:40 -1,7 C 92 % 1011,2 hPa 0,0 l/m 1,3 km/h (1 Bft) W-SW 247 -2,8 C -1,5 C 6,3 km/h (2 Bft)
21.02.2014 00:45 -1,3 C 92 % 1011,2 hPa 0,0 l/m 1,6 km/h (1 Bft) O 90 -2,4 C -1,3 C 4,2 km/h (1 Bft)
21.02.2014 00:50 -1,2 C 92 % 1010,9 hPa 0,0 l/m 1,8 km/h (1 Bft) W-SW 247 -2,3 C -1,0 C 0,0 km/h (0 Bft)
21.02.2014 00:55 -1,5 C 92 % 1010,9 hPa 0,0 l/m 1,3 km/h (1 Bft) N-NW 337 -2,6 C -1,0 C 0,0 km/h (0 Bft)
21.02.2014 01:00 -1,5 C 92 % 1010,9 hPa 0,0 l/m 0,3 km/h (0 Bft) S-SO 157 -2,6 C -0,8 C 0,0 km/h (0 Bft)
21.02.2014 01:05 -1,3 C 92 % 1010,9 hPa 0,0 l/m 0,3 km/h (0 Bft) NO 45 -2,4 C -0,9 C 0,0 km/h (0 Bft)
21.02.2014 01:10 -1,7 C 92 % 1011,0 hPa 0,0 l/m 0,3 km/h (0 Bft) W-NW 292 -2,8 C -1,4 C 3,4 km/h (1 Bft)
21.02.2014 01:15 -1,9 C 92 % 1011,0 hPa 0,0 l/m 0,5 km/h (0 Bft) W-SW 247 -3,0 C -1,5 C 1,8 km/h (1 Bft)
21.02.2014 01:20 -2,1 C 92 % 1011,0 hPa 0,0 l/m 0,6 km/h (0 Bft) S 180 -3,2 C -1,8 C 1,8 km/h (1 Bft)
21.02.2014 01:25 -1,7 C 92 % 1011,0 hPa 0,0 l/m 0,3 km/h (0 Bft) W-NW 292 -2,8 C -1,9 C 0,0 km/h (0 Bft)
21.02.2014 01:30 -2,1 C 92 % 1010,8 hPa 0,0 l/m 0,3 km/h (0 Bft) W 270 -3,2 C -2,0 C 0,0 km/h (0 Bft)
21.02.2014 01:35 -2,0 C 92 % 1010,8 hPa 0,0 l/m 0,3 km/h (0 Bft) S 180 -3,1 C -2,1 C 0,0 km/h (0 Bft)
21.02.2014 01:40 -2,1 C 92 % 1010,8 hPa 0,0 l/m 0,2 km/h (0 Bft) N 360 -3,2 C -2,1 C 0,0 km/h (0 Bft)
21.02.2014 01:45 -2,1 C 92 % 1010,8 hPa 0,0 l/m 0,3 km/h (0 Bft) W 270 -3,2 C -2,2 C 3,1 km/h (1 Bft)
21.02.2014 01:50 -2,0 C 93 % 1010,9 hPa 0,0 l/m 1,0 km/h (0 Bft) O-SO 112 -3,0 C -2,0 C 2,7 km/h (1 Bft)
21.02.2014 01:55 -1,8 C 93 % 1010,9 hPa 0,0 l/m 1,1 km/h (1 Bft) W 270 -2,8 C -1,7 C 0,0 km/h (0 Bft)
21.02.2014 02:00 -1,8 C 93 % 1010,9 hPa 0,0 l/m 1,1 km/h (1 Bft) SO 135 -2,8 C -1,6 C 3,5 km/h (1 Bft)
21.02.2014 02:05 -1,9 C 93 % 1010,9 hPa 0,0 l/m 0,6 km/h (0 Bft) S-SW 202 -2,9 C -1,6 C 0,0 km/h (0 Bft)
21.02.2014 02:10 -1,6 C 93 % 1010,9 hPa 0,0 l/m 0,5 km/h (0 Bft) W 270 -2,6 C -1,6 C 0,0 km/h (0 Bft)
21.02.2014 02:15 -1,8 C 93 % 1010,9 hPa 0,0 l/m 0,2 km/h (0 Bft) W-SW 247 -2,8 C -1,7 C 0,0 km/h (0 Bft)
21.02.2014 02:20 -2,0 C 94 % 1010,9 hPa 0,0 l/m 0,2 km/h (0 Bft) NW 315 -2,8 C -2,0 C 1,6 km/h (1 Bft)
21.02.2014 02:25 -2,0 C 94 % 1010,9 hPa 0,0 l/m 0,2 km/h (0 Bft) N-NW 337 -2,8 C -2,1 C 0,0 km/h (0 Bft)
21.02.2014 02:30 -2,2 C 94 % 1010,9 hPa 0,0 l/m 0,2 km/h (0 Bft) N-NO 22 -3,0 C -2,3 C 2,1 km/h (1 Bft)
21.02.2014 02:35 -2,4 C 94 % 1010,9 hPa 0,0 l/m 0,5 km/h (0 Bft) W-SW 247 -3,2 C -2,3 C 1,8 km/h (1 Bft)
21.02.2014 02:40 -2,4 C 94 % 1010,9 hPa 0,0 l/m 1,4 km/h (1 Bft) N-NW 337 -3,2 C -2,3 C 0,0 km/h (0 Bft)
21.02.2014 02:45 -2,0 C 94 % 1010,9 hPa 0,0 l/m 1,6 km/h (1 Bft) O-NO 67 -2,8 C -2,3 C 0,0 km/h (0 Bft)
21.02.2014 02:50 -1,8 C 94 % 1011,1 hPa 0,0 l/m 1,8 km/h (1 Bft) O-NO 67 -2,6 C -2,2 C 2,4 km/h (1 Bft)
21.02.2014 02:55 -1,8 C 94 % 1011,1 hPa 0,0 l/m 1,4 km/h (1 Bft) SW 225 -2,6 C -2,3 C 2,1 km/h (1 Bft)
21.02.2014 03:00 -1,8 C 95 % 1011,1 hPa 0,0 l/m 1,9 km/h (1 Bft) NO 45 -2,5 C -2,3 C 6,4 km/h (2 Bft)
21.02.2014 03:05 -1,5 C 95 % 1011,1 hPa 0,0 l/m 2,3 km/h (1 Bft) NO 45 -2,2 C -2,1 C 0,0 km/h (0 Bft)
21.02.2014 03:10 -1,7 C 95 % 1010,9 hPa 0,0 l/m 1,6 km/h (1 Bft) N-NO 22 -2,4 C -2,1 C 0,0 km/h (0 Bft)
21.02.2014 03:15 -1,4 C 95 % 1010,9 hPa 0,0 l/m 1,8 km/h (1 Bft) NO 45 -2,1 C -2,2 C 6,4 km/h (2 Bft)
21.02.2014 03:20 -1,3 C 95 % 1010,9 hPa 0,0 l/m 4,2 km/h (1 Bft) NO 45 -2,0 C -3,2 C 7,1 km/h (2 Bft)
21.02.2014 03:25 -1,3 C 95 % 1010,9 hPa 0,0 l/m 4,8 km/h (1 Bft) NO 45 -2,0 C -3,4 C 3,7 km/h (1 Bft)
21.02.2014 03:30 -1,2 C 95 % 1010,9 hPa 0,0 l/m 3,7 km/h (1 Bft) O-SO 112 -1,9 C -2,7 C 7,6 km/h (2 Bft)
21.02.2014 03:35 -1,1 C 95 % 1010,9 hPa 0,0 l/m 3,1 km/h (1 Bft) N 360 -1,8 C -2,4 C 3,9 km/h (1 Bft)
21.02.2014 03:40 -1,6 C 95 % 1010,9 hPa 0,0 l/m 1,6 km/h (1 Bft) N-NO 22 -2,3 C -1,7 C 0,0 km/h (0 Bft)
21.02.2014 03:45 -2,1 C 95 % 1010,9 hPa 0,0 l/m 0,6 km/h (0 Bft) N-NO 22 -2,8 C -1,9 C 0,0 km/h (0 Bft)
21.02.2014 03:50 -1,4 C 95 % 1010,8 hPa 0,0 l/m 1,9 km/h (1 Bft) NO 45 -2,1 C -2,2 C 8,2 km/h (2 Bft)
21.02.2014 03:55 -1,1 C 96 % 1010,8 hPa 0,0 l/m 3,7 km/h (1 Bft) O-NO 67 -1,7 C -2,9 C 5,0 km/h (1 Bft)
21.02.2014 04:00 -0,7 C 96 % 1010,8 hPa 0,0 l/m 4,8 km/h (1 Bft) O-SO 112 -1,3 C -2,9 C 9,2 km/h (2 Bft)
21.02.2014 04:05 -0,2 C 96 % 1010,8 hPa 0,0 l/m 5,3 km/h (1 Bft) O-SO 112 -0,8 C -2,7 C 6,9 km/h (2 Bft)
21.02.2014 04:10 -0,1 C 96 % 1010,8 hPa 0,0 l/m 6,3 km/h (2 Bft) O 90 -0,7 C -2,7 C 9,8 km/h (2 Bft)
21.02.2014 04:15 -0,5 C 96 % 1010,8 hPa 0,0 l/m 6,1 km/h (2 Bft) O-NO 67 -1,1 C -2,8 C 7,1 km/h (2 Bft)
21.02.2014 04:20 -0,6 C 96 % 1010,8 hPa 0,0 l/m 4,8 km/h (1 Bft) O-SO 112 -1,2 C -2,5 C 5,3 km/h (1 Bft)
21.02.2014 04:25 -0,9 C 96 % 1010,8 hPa 0,0 l/m 3,1 km/h (1 Bft) W 270 -1,5 C -1,6 C 1,6 km/h (1 Bft)
21.02.2014 04:30 -1,3 C 95 % 1010,7 hPa 0,0 l/m 0,8 km/h (0 Bft) N 360 -2,0 C -1,3 C 0,0 km/h (0 Bft)
21.02.2014 04:35 -1,2 C 95 % 1010,7 hPa 0,0 l/m 0,6 km/h (0 Bft) O-SO 112 -1,9 C -1,4 C 6,1 km/h (2 Bft)
21.02.2014 04:40 -0,4 C 96 % 1010,7 hPa 0,0 l/m 3,7 km/h (1 Bft) O 90 -1,0 C -2,1 C 6,1 km/h (2 Bft)
21.02.2014 04:43 0,3 C 96 % 1010,7 hPa 0,0 l/m 5,8 km/h (2 Bft) O-NO 67 -0,3 C -2,8 C 6,4 km/h (2 Bft)
21.02.2014 04:45 0,3 C 96 % 1010,7 hPa 0,0 l/m 5,8 km/h (2 Bft) O-NO 67 -0,3 C -2,8 C 6,4 km/h (2 Bft)
21.02.2014 04:50 0,8 C 96 % 1011,0 hPa 0,0 l/m 6,9 km/h (2 Bft) O-SO 112 0,2 C -2,9 C 13,7 km/h (3 Bft)
21.02.2014 04:55 1,1 C 95 % 1011,0 hPa 0,0 l/m 7,4 km/h (2 Bft) O-SO 112 0,4 C -3,3 C 12,9 km/h (3 Bft)
21.02.2014 05:00 1,5 C 94 % 1011,0 hPa 0,0 l/m 8,7 km/h (2 Bft) O-SO 112 0,6 C -4,5 C 16,1 km/h (3 Bft)
21.02.2014 05:05 1,6 C 93 % 1011,0 hPa 0,0 l/m 9,2 km/h (2 Bft) O-SO 112 0,6 C -4,8 C 10,8 km/h (2 Bft)
21.02.2014 05:10 1,7 C 90 % 1011,1 hPa 0,0 l/m 8,5 km/h (2 Bft) SO 135 0,2 C -3,3 C 6,6 km/h (2 Bft)
21.02.2014 05:15 1,8 C 88 % 1011,1 hPa 0,0 l/m 8,2 km/h (2 Bft) O-SO 112 0,0 C -2,7 C 7,4 km/h (2 Bft)
21.02.2014 05:20 1,7 C 86 % 1011,1 hPa 0,0 l/m 8,0 km/h (2 Bft) O-SO 112 -0,4 C -2,4 C 10,0 km/h (2 Bft)
21.02.2014 05:25 1,5 C 86 % 1011,1 hPa 0,0 l/m 7,2 km/h (2 Bft) SO 135 -0,6 C -1,4 C 7,1 km/h (2 Bft)
21.02.2014 05:30 1,1 C 88 % 1011,2 hPa 0,0 l/m 3,5 km/h (1 Bft) N-NW 337 -0,7 C 0,6 C 0,0 km/h (0 Bft)
21.02.2014 05:35 1,0 C 89 % 1011,2 hPa 0,0 l/m 1,9 km/h (1 Bft) O-SO 112 -0,6 C 1,2 C 6,1 km/h (2 Bft)
21.02.2014 05:40 1,0 C 91 % 1011,2 hPa 0,0 l/m 1,6 km/h (1 Bft) N-NO 22 -0,3 C 1,2 C 1,8 km/h (1 Bft)
21.02.2014 05:45 0,9 C 91 % 1011,2 hPa 0,0 l/m 1,8 km/h (1 Bft) N-NW 337 -0,4 C 1,1 C 0,0 km/h (0 Bft)
21.02.2014 05:50 0,8 C 92 % 1011,2 hPa 0,0 l/m 0,6 km/h (0 Bft) W-NW 292 -0,3 C 1,1 C 1,8 km/h (1 Bft)
21.02.2014 05:55 0,9 C 93 % 1011,2 hPa 0,0 l/m 0,3 km/h (0 Bft) W-NW 292 -0,1 C 1,1 C 0,0 km/h (0 Bft)
21.02.2014 06:00 1,0 C 93 % 1011,2 hPa 0,0 l/m 0,3 km/h (0 Bft) W-NW 292 -0,0 C 1,2 C 0,0 km/h (0 Bft)
21.02.2014 06:05 1,1 C 93 % 1011,2 hPa 0,0 l/m 0,5 km/h (0 Bft) W-SW 247 0,1 C 1,4 C 0,0 km/h (0 Bft)
21.02.2014 06:10 1,3 C 94 % 1011,0 hPa 0,0 l/m 0,5 km/h (0 Bft) W-SW 247 0,4 C 1,5 C 3,2 km/h (1 Bft)
21.02.2014 06:15 1,3 C 94 % 1011,0 hPa 0,0 l/m 0,5 km/h (0 Bft) W-NW 292 0,4 C 1,6 C 1,9 km/h (1 Bft)
21.02.2014 06:20 1,4 C 94 % 1011,0 hPa 0,0 l/m 2,3 km/h (1 Bft) W-NW 292 0,5 C 1,7 C 1,6 km/h (1 Bft)
21.02.2014 06:25 1,3 C 95 % 1011,0 hPa 0,0 l/m 2,3 km/h (1 Bft) O-NO 67 0,6 C 1,7 C 3,1 km/h (1 Bft)
21.02.2014 06:30 1,2 C 95 % 1010,8 hPa 0,0 l/m 1,1 km/h (1 Bft) W-NW 292 0,5 C 1,6 C 3,7 km/h (1 Bft)
21.02.2014 06:35 1,3 C 95 % 1010,8 hPa 0,0 l/m 1,4 km/h (1 Bft) NO 45 0,6 C 1,6 C 3,5 km/h (1 Bft)
21.02.2014 06:40 1,3 C 95 % 1010,8 hPa 0,0 l/m 2,3 km/h (1 Bft) W 270 0,6 C 1,6 C 3,2 km/h (1 Bft)
21.02.2014 06:45 1,3 C 95 % 1010,8 hPa 0,0 l/m 2,7 km/h (1 Bft) N 360 0,6 C 1,5 C 3,4 km/h (1 Bft)
21.02.2014 06:50 1,3 C 95 % 1010,6 hPa 0,0 l/m 2,3 km/h (1 Bft) N-NO 22 0,6 C 1,6 C 0,0 km/h (0 Bft)
21.02.2014 06:55 1,3 C 95 % 1010,6 hPa 0,0 l/m 1,4 km/h (1 Bft) N-NW 337 0,6 C 1,7 C 3,9 km/h (1 Bft)
21.02.2014 07:00 1,4 C 96 % 1010,6 hPa 0,0 l/m 1,3 km/h (1 Bft) W-NW 292 0,8 C 1,7 C 3,2 km/h (1 Bft)
21.02.2014 07:05 1,4 C 96 % 1010,6 hPa 0,0 l/m 1,9 km/h (1 Bft) W-NW 292 0,8 C 1,8 C 4,3 km/h (1 Bft)
21.02.2014 07:10 1,6 C 96 % 1010,3 hPa 0,0 l/m 3,2 km/h (1 Bft) S 180 1,0 C 1,5 C 6,1 km/h (2 Bft)
21.02.2014 07:15 1,6 C 96 % 1010,3 hPa 0,0 l/m 3,7 km/h (1 Bft) W-SW 247 1,0 C 1,2 C 0,0 km/h (0 Bft)
21.02.2014 07:20 1,6 C 96 % 1010,3 hPa 0,0 l/m 3,7 km/h (1 Bft) S-SW 202 1,0 C 1,3 C 6,4 km/h (2 Bft)
21.02.2014 07:25 1,6 C 96 % 1010,3 hPa 0,0 l/m 3,4 km/h (1 Bft) W-SW 247 1,0 C 1,5 C 6,9 km/h (2 Bft)
21.02.2014 07:30 1,6 C 96 % 1010,3 hPa 0,0 l/m 2,7 km/h (1 Bft) W 270 1,0 C 2,1 C 1,8 km/h (1 Bft)
21.02.2014 07:35 1,7 C 96 % 1010,3 hPa 0,0 l/m 2,4 km/h (1 Bft) W-NW 292 1,1 C 2,1 C 0,0 km/h (0 Bft)
21.02.2014 07:40 1,7 C 96 % 1010,3 hPa 0,0 l/m 1,6 km/h (1 Bft) NO 45 1,1 C 2,2 C 3,2 km/h (1 Bft)
21.02.2014 07:45 1,7 C 96 % 1010,3 hPa 0,0 l/m 1,9 km/h (1 Bft) N-NO 22 1,1 C 2,2 C 2,9 km/h (1 Bft)
21.02.2014 07:50 1,7 C 96 % 1010,6 hPa 0,0 l/m 2,3 km/h (1 Bft) W-NW 292 1,1 C 2,3 C 2,6 km/h (1 Bft)
21.02.2014 07:55 1,8 C 96 % 1010,6 hPa 0,0 l/m 1,6 km/h (1 Bft) N-NW 337 1,2 C 2,3 C 2,4 km/h (1 Bft)
21.02.2014 08:00 2,0 C 96 % 1010,6 hPa 0,0 l/m 1,0 km/h (0 Bft) SO 135 1,4 C 2,5 C 1,9 km/h (1 Bft)
21.02.2014 08:05 2,0 C 96 % 1010,6 hPa 0,0 l/m 0,6 km/h (0 Bft) O 90 1,4 C 2,5 C 0,0 km/h (0 Bft)
21.02.2014 08:10 2,1 C 96 % 1010,7 hPa 0,0 l/m 1,8 km/h (1 Bft) S-SO 157 1,5 C 2,6 C 3,9 km/h (1 Bft)
21.02.2014 08:15 2,1 C 96 % 1010,7 hPa 0,0 l/m 1,9 km/h (1 Bft) O 90 1,5 C 2,6 C 0,0 km/h (0 Bft)
21.02.2014 08:20 2,1 C 96 % 1010,7 hPa 0,0 l/m 1,4 km/h (1 Bft) NO 45 1,5 C 2,7 C 0,0 km/h (0 Bft)
21.02.2014 08:25 2,1 C 96 % 1010,7 hPa 0,0 l/m 0,6 km/h (0 Bft) W-SW 247 1,5 C 2,7 C 0,0 km/h (0 Bft)
21.02.2014 08:30 2,1 C 96 % 1010,9 hPa 0,0 l/m 0,5 km/h (0 Bft) NO 45 1,5 C 2,7 C 1,9 km/h (1 Bft)
21.02.2014 08:35 2,3 C 96 % 1010,9 hPa 0,0 l/m 0,3 km/h (0 Bft) S-SO 157 1,7 C 2,8 C 0,0 km/h (0 Bft)
21.02.2014 08:40 2,4 C 96 % 1010,9 hPa 0,0 l/m 0,3 km/h (0 Bft) NO 45 1,8 C 2,9 C 0,0 km/h (0 Bft)
21.02.2014 08:45 2,5 C 96 % 1010,9 hPa 0,0 l/m 0,2 km/h (0 Bft) W-SW 247 1,9 C 3,1 C 0,0 km/h (0 Bft)
21.02.2014 08:50 2,7 C 96 % 1010,9 hPa 0,0 l/m 0,0 km/h (0 Bft) W 270 2,1 C 3,3 C 0,0 km/h (0 Bft)
21.02.2014 08:55 2,9 C 96 % 1010,9 hPa 0,0 l/m 0,0 km/h (0 Bft) W-NW 292 2,3 C 3,5 C 0,0 km/h (0 Bft)
21.02.2014 09:00 2,9 C 96 % 1010,9 hPa 0,0 l/m 0,2 km/h (0 Bft) W-SW 247 2,3 C 3,7 C 0,0 km/h (0 Bft)
21.02.2014 09:05 2,9 C 96 % 1010,9 hPa 0,0 l/m 0,3 km/h (0 Bft) W 270 2,3 C 3,7 C 4,3 km/h (1 Bft)
21.02.2014 09:10 2,9 C 96 % 1010,8 hPa 0,0 l/m 0,6 km/h (0 Bft) W-NW 292 2,3 C 3,7 C 1,9 km/h (1 Bft)
21.02.2014 09:15 3,0 C 96 % 1010,8 hPa 0,0 l/m 0,6 km/h (0 Bft) W-NW 292 2,4 C 3,8 C 0,0 km/h (0 Bft)
21.02.2014 09:20 3,1 C 96 % 1010,8 hPa 0,0 l/m 0,8 km/h (0 Bft) NO 45 2,5 C 4,0 C 0,0 km/h (0 Bft)
21.02.2014 09:25 3,2 C 96 % 1010,8 hPa 0,0 l/m 0,8 km/h (0 Bft) NW 315 2,6 C 4,1 C 0,0 km/h (0 Bft)
21.02.2014 09:30 3,3 C 96 % 1010,8 hPa 0,0 l/m 0,5 km/h (0 Bft) N 360 2,7 C 4,3 C 0,0 km/h (0 Bft)
21.02.2014 09:35 3,4 C 96 % 1010,8 hPa 0,0 l/m 0,5 km/h (0 Bft) NO 45 2,8 C 4,5 C 3,5 km/h (1 Bft)
21.02.2014 09:40 3,4 C 96 % 1010,8 hPa 0,0 l/m 0,5 km/h (0 Bft) W-SW 247 2,8 C 4,5 C 0,0 km/h (0 Bft)
21.02.2014 09:43 3,4 C 96 % 1010,8 hPa 0,0 l/m 0,6 km/h (0 Bft) S-SO 157 2,8 C 4,6 C 0,0 km/h (0 Bft)
21.02.2014 09:45 3,4 C 96 % 1010,8 hPa 0,0 l/m 0,6 km/h (0 Bft) S-SO 157 2,8 C 4,6 C 0,0 km/h (0 Bft)
21.02.2014 09:50 3,4 C 96 % 1010,9 hPa 0,0 l/m 0,5 km/h (0 Bft) W-NW 292 2,8 C 4,6 C 0,0 km/h (0 Bft)
21.02.2014 09:55 3,4 C 96 % 1010,9 hPa 0,0 l/m 1,0 km/h (0 Bft) N 360 2,8 C 4,6 C 3,2 km/h (1 Bft)
21.02.2014 10:00 3,6 C 96 % 1010,9 hPa 0,0 l/m 1,8 km/h (1 Bft) N-NW 337 3,0 C 4,5 C 2,6 km/h (1 Bft)
21.02.2014 10:05 3,9 C 96 % 1010,9 hPa 0,0 l/m 1,4 km/h (1 Bft) N-NO 22 3,3 C 4,6 C 0,0 km/h (0 Bft)
21.02.2014 10:10 4,2 C 96 % 1010,8 hPa 0,0 l/m 0,2 km/h (0 Bft) W-NW 292 3,6 C 5,0 C 0,0 km/h (0 Bft)
21.02.2014 10:15 4,1 C 96 % 1010,8 hPa 0,0 l/m 0,6 km/h (0 Bft) W-NW 292 3,5 C 5,1 C 2,7 km/h (1 Bft)
21.02.2014 10:20 4,2 C 96 % 1010,8 hPa 0,0 l/m 1,3 km/h (1 Bft) W 270 3,6 C 5,2 C 3,1 km/h (1 Bft)
21.02.2014 10:25 4,3 C 96 % 1010,8 hPa 0,0 l/m 1,0 km/h (0 Bft) N 360 3,7 C 5,2 C 0,0 km/h (0 Bft)
21.02.2014 10:30 4,4 C 96 % 1010,8 hPa 0,0 l/m 0,5 km/h (0 Bft) S 180 3,8 C 5,5 C 0,0 km/h (0 Bft)
21.02.2014 10:35 4,5 C 96 % 1010,8 hPa 0,0 l/m 0,3 km/h (0 Bft) NO 45 3,9 C 5,6 C 0,0 km/h (0 Bft)
21.02.2014 10:40 4,9 C 96 % 1010,8 hPa 0,0 l/m 0,2 km/h (0 Bft) O 90 4,3 C 6,0 C 0,0 km/h (0 Bft)
21.02.2014 10:45 5,4 C 96 % 1010,8 hPa 0,0 l/m 0,0 km/h (0 Bft) N 360 4,8 C 6,3 C 0,0 km/h (0 Bft)
21.02.2014 10:50 5,5 C 95 % 1010,8 hPa 0,0 l/m 0,8 km/h (0 Bft) W 270 4,8 C 6,6 C 2,4 km/h (1 Bft)
21.02.2014 10:55 5,5 C 95 % 1010,8 hPa 0,0 l/m 1,3 km/h (1 Bft) N 360 4,8 C 6,7 C 0,0 km/h (0 Bft)
21.02.2014 11:00 5,5 C 95 % 1010,8 hPa 0,0 l/m 1,1 km/h (1 Bft) N 360 4,8 C 6,8 C 0,0 km/h (0 Bft)
21.02.2014 11:05 5,4 C 95 % 1010,8 hPa 0,0 l/m 0,5 km/h (0 Bft) N-NO 22 4,7 C 6,8 C 0,0 km/h (0 Bft)
21.02.2014 11:10 5,5 C 95 % 1011,1 hPa 0,0 l/m 0,2 km/h (0 Bft) W-NW 292 4,8 C 7,0 C 0,0 km/h (0 Bft)
21.02.2014 11:15 5,7 C 95 % 1011,1 hPa 0,0 l/m 0,6 km/h (0 Bft) S 180 5,0 C 7,0 C 2,9 km/h (1 Bft)
21.02.2014 11:20 5,8 C 95 % 1011,1 hPa 0,0 l/m 1,3 km/h (1 Bft) S-SW 202 5,1 C 7,2 C 0,0 km/h (0 Bft)
21.02.2014 11:25 6,1 C 94 % 1011,1 hPa 0,0 l/m 2,1 km/h (1 Bft) W-SW 247 5,2 C 7,4 C 6,4 km/h (2 Bft)
21.02.2014 11:30 6,0 C 93 % 1011,0 hPa 0,0 l/m 1,9 km/h (1 Bft) O-SO 112 5,0 C 7,6 C 1,6 km/h (1 Bft)
21.02.2014 11:35 6,0 C 93 % 1011,0 hPa 0,0 l/m 2,1 km/h (1 Bft) O 90 5,0 C 7,7 C 5,0 km/h (1 Bft)
21.02.2014 11:40 6,0 C 93 % 1011,0 hPa 0,0 l/m 1,1 km/h (1 Bft) SO 135 5,0 C 7,8 C 0,0 km/h (0 Bft)
21.02.2014 11:45 6,0 C 93 % 1011,0 hPa 0,0 l/m 0,8 km/h (0 Bft) S-SO 157 5,0 C 7,8 C 0,0 km/h (0 Bft)
21.02.2014 11:50 6,0 C 93 % 1011,2 hPa 0,0 l/m 0,3 km/h (0 Bft) W-SW 247 5,0 C 7,8 C 1,6 km/h (1 Bft)
21.02.2014 11:55 6,1 C 93 % 1011,2 hPa 0,0 l/m 0,2 km/h (0 Bft) S 180 5,1 C 7,8 C 0,0 km/h (0 Bft)
21.02.2014 12:00 6,1 C 93 % 1011,2 hPa 0,0 l/m 1,3 km/h (1 Bft) S 180 5,1 C 7,7 C 5,1 km/h (1 Bft)
21.02.2014 12:05 6,0 C 92 % 1011,2 hPa 0,0 l/m 3,1 km/h (1 Bft) S-SW 202 4,8 C 7,5 C 6,0 km/h (2 Bft)
21.02.2014 12:10 6,1 C 92 % 1011,2 hPa 0,0 l/m 5,6 km/h (1 Bft) S-SW 202 4,9 C 6,4 C 6,9 km/h (2 Bft)
21.02.2014 12:15 6,3 C 92 % 1011,2 hPa 0,0 l/m 5,8 km/h (2 Bft) S 180 5,1 C 6,3 C 7,1 km/h (2 Bft)
21.02.2014 12:20 6,6 C 92 % 1011,2 hPa 0,0 l/m 5,8 km/h (2 Bft) S 180 5,4 C 6,4 C 8,9 km/h (2 Bft)
21.02.2014 12:25 6,5 C 92 % 1011,2 hPa 0,0 l/m 6,3 km/h (2 Bft) S 180 5,3 C 6,4 C 8,9 km/h (2 Bft)
21.02.2014 12:30 6,2 C 91 % 1011,2 hPa 0,0 l/m 7,4 km/h (2 Bft) S-SO 157 4,8 C 5,0 C 8,2 km/h (2 Bft)
21.02.2014 12:35 6,2 C 91 % 1011,2 hPa 0,0 l/m 7,2 km/h (2 Bft) S 180 4,8 C 5,0 C 5,3 km/h (1 Bft)
21.02.2014 12:40 6,2 C 90 % 1011,2 hPa 0,0 l/m 6,6 km/h (2 Bft) S-SO 157 4,7 C 5,7 C 8,7 km/h (2 Bft)
21.02.2014 12:45 6,1 C 90 % 1011,2 hPa 0,0 l/m 6,9 km/h (2 Bft) S-SO 157 4,6 C 5,3 C 7,1 km/h (2 Bft)
21.02.2014 12:50 5,6 C 91 % 1011,2 hPa 0,0 l/m 8,7 km/h (2 Bft) S 180 4,2 C 2,6 C 16,9 km/h (3 Bft)
21.02.2014 12:55 5,4 C 91 % 1011,2 hPa 0,0 l/m 9,5 km/h (2 Bft) SO 135 4,1 C 1,6 C 12,1 km/h (2 Bft)
21.02.2014 13:00 5,2 C 91 % 1011,2 hPa 0,0 l/m 8,7 km/h (2 Bft) S 180 3,9 C 1,9 C 8,4 km/h (2 Bft)
21.02.2014 13:05 5,2 C 91 % 1011,2 hPa 0,0 l/m 7,7 km/h (2 Bft) S 180 3,9 C 2,8 C 9,7 km/h (2 Bft)
21.02.2014 13:10 5,0 C 91 % 1011,1 hPa 0,0 l/m 8,0 km/h (2 Bft) S-SO 157 3,7 C 2,3 C 18,2 km/h (3 Bft)
21.02.2014 13:15 4,8 C 91 % 1011,1 hPa 0,0 l/m 8,7 km/h (2 Bft) S-SW 202 3,5 C 1,3 C 10,8 km/h (2 Bft)
21.02.2014 13:20 4,8 C 92 % 1011,1 hPa 0,0 l/m 8,5 km/h (2 Bft) S 180 3,6 C 1,4 C 24,1 km/h (4 Bft)
21.02.2014 13:25 4,5 C 91 % 1011,1 hPa 0,0 l/m 10,8 km/h (2 Bft) S-SO 157 3,2 C -1,3 C 19,2 km/h (3 Bft)
21.02.2014 13:30 4,4 C 91 % 1011,5 hPa 0,0 l/m 12,1 km/h (2 Bft) S 180 3,1 C -2,9 C 10,3 km/h (2 Bft)
21.02.2014 13:35 4,3 C 91 % 1011,5 hPa 0,0 l/m 10,6 km/h (2 Bft) S 180 3,0 C -1,5 C 9,5 km/h (2 Bft)
21.02.2014 13:40 4,1 C 91 % 1011,5 hPa 0,0 l/m 10,6 km/h (2 Bft) S 180 2,8 C -1,8 C 18,3 km/h (3 Bft)
21.02.2014 13:45 4,0 C 91 % 1011,5 hPa 0,0 l/m 10,3 km/h (2 Bft) S 180 2,7 C -1,5 C 9,2 km/h (2 Bft)
21.02.2014 13:50 3,8 C 91 % 1011,5 hPa 0,0 l/m 10,8 km/h (2 Bft) S 180 2,5 C -2,3 C 8,7 km/h (2 Bft)
21.02.2014 13:55 3,7 C 91 % 1011,5 hPa 0,0 l/m 10,0 km/h (2 Bft) S 180 2,4 C -1,7 C 6,1 km/h (2 Bft)
21.02.2014 14:00 3,4 C 91 % 1011,5 hPa 0,0 l/m 9,3 km/h (2 Bft) S 180 2,1 C -1,3 C 11,4 km/h (2 Bft)
21.02.2014 14:05 3,4 C 91 % 1011,5 hPa 0,0 l/m 9,2 km/h (2 Bft) S-SW 202 2,1 C -1,2 C 11,4 km/h (2 Bft)
21.02.2014 14:10 3,2 C 92 % 1011,8 hPa 0,0 l/m 9,0 km/h (2 Bft) SO 135 2,0 C -1,3 C 8,0 km/h (2 Bft)
21.02.2014 14:15 3,1 C 92 % 1011,8 hPa 0,0 l/m 8,4 km/h (2 Bft) SO 135 1,9 C -0,8 C 7,6 km/h (2 Bft)
21.02.2014 14:20 2,9 C 93 % 1011,8 hPa 0,0 l/m 9,3 km/h (2 Bft) SO 135 1,9 C -2,1 C 10,9 km/h (2 Bft)
21.02.2014 14:25 2,8 C 93 % 1011,8 hPa 0,0 l/m 9,8 km/h (2 Bft) S-SO 157 1,8 C -2,8 C 11,9 km/h (2 Bft)
21.02.2014 14:30 2,8 C 93 % 1012,0 hPa 0,0 l/m 7,4 km/h (2 Bft) S-SO 157 1,8 C 0,1 C 10,0 km/h (2 Bft)
21.02.2014 14:35 2,9 C 93 % 1012,0 hPa 0,0 l/m 7,1 km/h (2 Bft) S 180 1,9 C 0,5 C 4,5 km/h (1 Bft)
21.02.2014 14:38 3,0 C 93 % 1012,0 hPa 0,0 l/m 6,8 km/h (2 Bft) S 180 2,0 C 1,0 C 6,8 km/h (2 Bft)
21.02.2014 14:40 3,0 C 93 % 1012,0 hPa 0,0 l/m 6,8 km/h (2 Bft) S 180 2,0 C 1,0 C 6,8 km/h (2 Bft)
21.02.2014 14:45 3,0 C 93 % 1012,0 hPa 0,0 l/m 6,1 km/h (2 Bft) S-SO 157 2,0 C 1,6 C 6,6 km/h (2 Bft)
21.02.2014 14:50 2,9 C 94 % 1012,1 hPa 0,0 l/m 6,4 km/h (2 Bft) S 180 2,0 C 1,5 C 9,7 km/h (2 Bft)
21.02.2014 14:55 2,9 C 94 % 1012,1 hPa 0,0 l/m 6,8 km/h (2 Bft) S 180 2,0 C 1,0 C 10,0 km/h (2 Bft)
21.02.2014 15:00 3,0 C 93 % 1012,1 hPa 0,0 l/m 7,1 km/h (2 Bft) S 180 2,0 C 0,6 C 6,6 km/h (2 Bft)
21.02.2014 15:05 2,9 C 95 % 1012,1 hPa 0,0 l/m 7,1 km/h (2 Bft) W-NW 292 2,2 C 0,6 C 5,8 km/h (2 Bft)
21.02.2014 15:10 2,9 C 95 % 1012,3 hPa 0,0 l/m 7,4 km/h (2 Bft) S 180 2,2 C 0,2 C 9,8 km/h (2 Bft)
21.02.2014 15:15 2,8 C 95 % 1012,3 hPa 0,0 l/m 7,9 km/h (2 Bft) S 180 2,1 C -0,6 C 8,0 km/h (2 Bft)
21.02.2014 15:20 2,9 C 95 % 1012,3 hPa 0,0 l/m 7,9 km/h (2 Bft) SO 135 2,2 C -0,6 C 6,1 km/h (2 Bft)
21.02.2014 15:25 2,9 C 95 % 1012,3 hPa 0,0 l/m 6,8 km/h (2 Bft) S 180 2,2 C 1,0 C 4,7 km/h (1 Bft)
21.02.2014 15:30 2,9 C 95 % 1012,3 hPa 0,0 l/m 5,8 km/h (2 Bft) S 180 2,2 C 1,7 C 9,3 km/h (2 Bft)
21.02.2014 15:35 3,0 C 94 % 1012,3 hPa 0,0 l/m 6,1 km/h (2 Bft) S 180 2,1 C 1,7 C 7,6 km/h (2 Bft)
21.02.2014 15:40 3,1 C 94 % 1012,3 hPa 0,0 l/m 6,1 km/h (2 Bft) SO 135 2,2 C 1,9 C 8,7 km/h (2 Bft)
21.02.2014 15:45 3,2 C 94 % 1012,3 hPa 0,0 l/m 6,1 km/h (2 Bft) SO 135 2,3 C 1,9 C 7,4 km/h (2 Bft)
21.02.2014 15:50 3,1 C 94 % 1012,2 hPa 0,0 l/m 6,3 km/h (2 Bft) SO 135 2,2 C 2,0 C 6,1 km/h (2 Bft)
21.02.2014 15:55 3,2 C 94 % 1012,2 hPa 0,0 l/m 5,8 km/h (2 Bft) S-SO 157 2,3 C 2,2 C 7,2 km/h (2 Bft)
21.02.2014 16:00 3,2 C 94 % 1012,2 hPa 0,0 l/m 5,1 km/h (1 Bft) S-SO 157 2,3 C 2,4 C 2,1 km/h (1 Bft)
21.02.2014 16:05 3,2 C 94 % 1012,2 hPa 0,0 l/m 5,6 km/h (1 Bft) S-SO 157 2,3 C 2,2 C 6,8 km/h (2 Bft)
21.02.2014 16:10 3,2 C 94 % 1012,4 hPa 0,0 l/m 5,6 km/h (1 Bft) S 180 2,3 C 2,2 C 6,3 km/h (2 Bft)
21.02.2014 16:15 3,2 C 94 % 1012,4 hPa 0,0 l/m 5,8 km/h (2 Bft) S 180 2,3 C 2,2 C 7,6 km/h (2 Bft)
21.02.2014 16:20 3,2 C 94 % 1012,4 hPa 0,0 l/m 6,9 km/h (2 Bft) S 180 2,3 C 1,3 C 11,1 km/h (2 Bft)
21.02.2014 16:25 3,2 C 94 % 1012,4 hPa 0,0 l/m 7,4 km/h (2 Bft) S 180 2,3 C 0,5 C 8,9 km/h (2 Bft)
21.02.2014 16:30 3,1 C 94 % 1012,6 hPa 0,0 l/m 7,7 km/h (2 Bft) S 180 2,2 C 0,1 C 12,1 km/h (2 Bft)
21.02.2014 16:35 3,1 C 94 % 1012,6 hPa 0,0 l/m 7,4 km/h (2 Bft) S 180 2,2 C 0,4 C 12,6 km/h (3 Bft)
21.02.2014 16:40 3,0 C 94 % 1012,6 hPa 0,0 l/m 8,0 km/h (2 Bft) S 180 2,1 C -0,4 C 7,4 km/h (2 Bft)
21.02.2014 16:45 3,0 C 94 % 1012,6 hPa 0,0 l/m 8,0 km/h (2 Bft) SO 135 2,1 C -0,4 C 10,1 km/h (2 Bft)
21.02.2014 16:50 2,8 C 95 % 1012,8 hPa 0,0 l/m 8,0 km/h (2 Bft) W 270 2,1 C -0,5 C 10,6 km/h (2 Bft)
21.02.2014 16:55 2,8 C 95 % 1012,8 hPa 0,0 l/m 8,0 km/h (2 Bft) W-SW 247 2,1 C -0,7 C 8,4 km/h (2 Bft)
21.02.2014 17:00 2,6 C 95 % 1012,8 hPa 0,0 l/m 7,9 km/h (2 Bft) S 180 1,9 C -0,7 C 9,2 km/h (2 Bft)
21.02.2014 17:05 2,6 C 95 % 1012,8 hPa 0,0 l/m 7,6 km/h (2 Bft) S-SW 202 1,9 C -0,4 C 11,3 km/h (2 Bft)
21.02.2014 17:10 2,6 C 95 % 1012,8 hPa 0,0 l/m 7,1 km/h (2 Bft) O-SO 112 1,9 C 0,1 C 6,8 km/h (2 Bft)
21.02.2014 17:15 2,5 C 95 % 1012,8 hPa 0,0 l/m 6,4 km/h (2 Bft) O-SO 112 1,8 C 1,0 C 10,1 km/h (2 Bft)
21.02.2014 17:20 2,4 C 95 % 1012,8 hPa 0,0 l/m 6,3 km/h (2 Bft) S-SO 157 1,7 C 1,0 C 7,2 km/h (2 Bft)
21.02.2014 17:25 2,3 C 95 % 1012,8 hPa 0,0 l/m 6,0 km/h (2 Bft) S-SW 202 1,6 C 1,1 C 11,1 km/h (2 Bft)
21.02.2014 17:30 2,2 C 95 % 1012,8 hPa 0,0 l/m 6,4 km/h (2 Bft) SO 135 1,5 C 0,8 C 7,1 km/h (2 Bft)
21.02.2014 17:35 2,2 C 95 % 1012,8 hPa 0,0 l/m 7,6 km/h (2 Bft) S-SO 157 1,5 C -0,8 C 8,4 km/h (2 Bft)
21.02.2014 17:40 2,0 C 95 % 1012,8 hPa 0,0 l/m 8,9 km/h (2 Bft) S 180 1,3 C -2,5 C 18,7 km/h (3 Bft)
21.02.2014 17:45 2,0 C 94 % 1012,8 hPa 0,0 l/m 8,5 km/h (2 Bft) SO 135 1,1 C -2,0 C 7,2 km/h (2 Bft)
21.02.2014 17:50 1,9 C 94 % 1012,6 hPa 0,0 l/m 8,4 km/h (2 Bft) SO 135 1,0 C -2,1 C 9,8 km/h (2 Bft)
21.02.2014 17:55 1,9 C 94 % 1012,6 hPa 0,0 l/m 7,7 km/h (2 Bft) S 180 1,0 C -1,2 C 8,2 km/h (2 Bft)
21.02.2014 18:00 1,9 C 94 % 1012,6 hPa 0,0 l/m 8,9 km/h (2 Bft) SO 135 1,0 C -2,5 C 8,5 km/h (2 Bft)
21.02.2014 18:05 1,8 C 94 % 1012,6 hPa 0,0 l/m 9,3 km/h (2 Bft) S-SO 157 0,9 C -3,1 C 17,5 km/h (3 Bft)
21.02.2014 18:10 1,8 C 93 % 1012,6 hPa 0,0 l/m 8,2 km/h (2 Bft) S-SW 202 0,8 C -1,6 C 7,9 km/h (2 Bft)
21.02.2014 18:15 1,7 C 93 % 1012,6 hPa 0,0 l/m 8,5 km/h (2 Bft) S 180 0,7 C -2,0 C 14,0 km/h (3 Bft)
21.02.2014 18:20 1,7 C 93 % 1012,6 hPa 0,0 l/m 9,0 km/h (2 Bft) SO 135 0,7 C -2,5 C 7,6 km/h (2 Bft)
21.02.2014 18:25 1,6 C 93 % 1012,6 hPa 0,0 l/m 9,2 km/h (2 Bft) S-SO 157 0,6 C -2,8 C 15,9 km/h (3 Bft)
21.02.2014 18:30 1,7 C 92 % 1012,8 hPa 0,0 l/m 8,9 km/h (2 Bft) SO 135 0,5 C -2,4 C 7,6 km/h (2 Bft)
21.02.2014 18:35 1,6 C 92 % 1012,8 hPa 0,0 l/m 8,4 km/h (2 Bft) S-SO 157 0,4 C -1,9 C 3,5 km/h (1 Bft)
21.02.2014 18:40 1,6 C 92 % 1012,8 hPa 0,0 l/m 6,0 km/h (2 Bft) S-SO 157 0,4 C 0,6 C 6,8 km/h (2 Bft)
21.02.2014 18:45 1,6 C 92 % 1012,8 hPa 0,0 l/m 4,8 km/h (1 Bft) O-SO 112 0,4 C 1,1 C 5,1 km/h (1 Bft)
21.02.2014 18:50 1,5 C 92 % 1012,8 hPa 0,0 l/m 4,5 km/h (1 Bft) NO 45 0,3 C 1,2 C 2,6 km/h (1 Bft)
21.02.2014 18:55 1,6 C 92 % 1012,8 hPa 0,0 l/m 4,5 km/h (1 Bft) O-SO 112 0,4 C 1,0 C 4,5 km/h (1 Bft)
21.02.2014 19:00 1,6 C 92 % 1012,8 hPa 0,0 l/m 3,9 km/h (1 Bft) NO 45 0,4 C 1,3 C 6,3 km/h (2 Bft)
21.02.2014 19:05 1,6 C 92 % 1012,8 hPa 0,0 l/m 4,0 km/h (1 Bft) O-SO 112 0,4 C 1,3 C 5,0 km/h (1 Bft)
21.02.2014 19:10 1,6 C 92 % 1013,0 hPa 0,0 l/m 5,0 km/h (1 Bft) SO 135 0,4 C 0,9 C 5,1 km/h (1 Bft)
21.02.2014 19:15 1,6 C 92 % 1013,0 hPa 0,0 l/m 4,8 km/h (1 Bft) SO 135 0,4 C 1,0 C 6,3 km/h (2 Bft)
21.02.2014 19:20 1,4 C 93 % 1013,0 hPa 0,0 l/m 3,7 km/h (1 Bft) O-NO 67 0,4 C 1,3 C 3,2 km/h (1 Bft)
21.02.2014 19:25 1,4 C 93 % 1013,0 hPa 0,0 l/m 3,1 km/h (1 Bft) O-SO 112 0,4 C 1,4 C 7,2 km/h (2 Bft)
21.02.2014 19:30 1,4 C 93 % 1013,1 hPa 0,0 l/m 2,9 km/h (1 Bft) O 90 0,4 C 1,6 C 4,5 km/h (1 Bft)
21.02.2014 19:35 1,3 C 93 % 1013,1 hPa 0,0 l/m 3,4 km/h (1 Bft) NO 45 0,3 C 1,2 C 4,8 km/h (1 Bft)
21.02.2014 19:38 1,3 C 93 % 1013,1 hPa 0,0 l/m 3,5 km/h (1 Bft) O 90 0,3 C 1,1 C 5,3 km/h (1 Bft)
21.02.2014 19:40 1,3 C 93 % 1013,1 hPa 0,0 l/m 3,5 km/h (1 Bft) O 90 0,3 C 1,1 C 5,3 km/h (1 Bft)
21.02.2014 19:45 1,4 C 94 % 1013,1 hPa 0,0 l/m 3,9 km/h (1 Bft) O-SO 112 0,5 C 0,9 C 4,8 km/h (1 Bft)
21.02.2014 19:50 1,3 C 94 % 1013,0 hPa 0,0 l/m 3,7 km/h (1 Bft) S 180 0,4 C 1,0 C 3,4 km/h (1 Bft)
21.02.2014 19:55 1,3 C 94 % 1013,0 hPa 0,0 l/m 3,7 km/h (1 Bft) O 90 0,4 C 0,9 C 4,3 km/h (1 Bft)
21.02.2014 20:00 1,4 C 94 % 1013,0 hPa 0,0 l/m 4,0 km/h (1 Bft) O-NO 67 0,5 C 0,8 C 5,5 km/h (1 Bft)
21.02.2014 20:05 1,4 C 94 % 1013,0 hPa 0,0 l/m 3,9 km/h (1 Bft) O 90 0,5 C 0,9 C 3,1 km/h (1 Bft)
21.02.2014 20:10 1,3 C 94 % 1013,2 hPa 0,0 l/m 3,9 km/h (1 Bft) O-SO 112 0,4 C 0,9 C 5,8 km/h (2 Bft)
21.02.2014 20:15 1,5 C 94 % 1013,2 hPa 0,0 l/m 4,5 km/h (1 Bft) O-SO 112 0,6 C 0,7 C 5,3 km/h (1 Bft)
21.02.2014 20:20 1,6 C 94 % 1013,2 hPa 0,0 l/m 5,1 km/h (1 Bft) O-SO 112 0,7 C 0,6 C 6,9 km/h (2 Bft)
21.02.2014 20:25 1,6 C 94 % 1013,2 hPa 0,0 l/m 5,1 km/h (1 Bft) O-SO 112 0,7 C 0,9 C 6,4 km/h (2 Bft)
21.02.2014 20:30 1,5 C 94 % 1013,2 hPa 0,0 l/m 4,7 km/h (1 Bft) O-SO 112 0,6 C 1,1 C 3,4 km/h (1 Bft)
21.02.2014 20:35 1,6 C 94 % 1013,2 hPa 0,0 l/m 4,3 km/h (1 Bft) O-SO 112 0,7 C 1,2 C 3,4 km/h (1 Bft)
21.02.2014 20:40 1,6 C 94 % 1013,2 hPa 0,0 l/m 4,7 km/h (1 Bft) O 90 0,7 C 1,1 C 5,5 km/h (1 Bft)
21.02.2014 20:45 1,6 C 94 % 1013,2 hPa 0,0 l/m 4,7 km/h (1 Bft) O-SO 112 0,7 C 1,1 C 7,2 km/h (2 Bft)
21.02.2014 20:50 1,8 C 94 % 1013,4 hPa 0,0 l/m 4,5 km/h (1 Bft) S-SO 157 0,9 C 1,2 C 6,1 km/h (2 Bft)
21.02.2014 20:55 1,8 C 94 % 1013,4 hPa 0,0 l/m 5,0 km/h (1 Bft) S-SO 157 0,9 C 1,1 C 5,0 km/h (1 Bft)
21.02.2014 21:00 1,6 C 93 % 1013,4 hPa 0,0 l/m 5,1 km/h (1 Bft) SO 135 0,6 C 0,9 C 6,1 km/h (2 Bft)
21.02.2014 21:05 1,6 C 94 % 1013,4 hPa 0,0 l/m 5,1 km/h (1 Bft) S-SO 157 0,7 C 0,7 C 6,9 km/h (2 Bft)
21.02.2014 21:10 1,6 C 94 % 1013,6 hPa 0,0 l/m 4,8 km/h (1 Bft) O-SO 112 0,7 C 0,7 C 3,9 km/h (1 Bft)
21.02.2014 21:15 1,5 C 94 % 1013,6 hPa 0,0 l/m 4,7 km/h (1 Bft) SO 135 0,6 C 0,7 C 3,2 km/h (1 Bft)
21.02.2014 21:20 1,6 C 94 % 1013,6 hPa 0,0 l/m 3,7 km/h (1 Bft) O 90 0,7 C 1,1 C 3,7 km/h (1 Bft)
21.02.2014 21:25 1,6 C 94 % 1013,6 hPa 0,0 l/m 3,9 km/h (1 Bft) O-SO 112 0,7 C 1,0 C 7,2 km/h (2 Bft)
21.02.2014 21:30 1,6 C 94 % 1013,8 hPa 0,0 l/m 4,8 km/h (1 Bft) O-SO 112 0,7 C 0,5 C 7,4 km/h (2 Bft)
21.02.2014 21:35 1,5 C 94 % 1013,8 hPa 0,0 l/m 5,5 km/h (1 Bft) S-SO 157 0,6 C 0,2 C 6,4 km/h (2 Bft)
21.02.2014 21:40 1,5 C 93 % 1013,8 hPa 0,0 l/m 5,5 km/h (1 Bft) NO 45 0,5 C 0,2 C 5,8 km/h (2 Bft)
21.02.2014 21:45 1,5 C 93 % 1013,8 hPa 0,0 l/m 5,3 km/h (1 Bft) O-SO 112 0,5 C 0,3 C 6,1 km/h (2 Bft)
21.02.2014 21:50 1,5 C 93 % 1013,9 hPa 0,0 l/m 5,1 km/h (1 Bft) O 90 0,5 C 0,3 C 11,3 km/h (2 Bft)
21.02.2014 21:55 1,6 C 93 % 1013,9 hPa 0,0 l/m 5,8 km/h (2 Bft) SO 135 0,6 C 0,1 C 6,6 km/h (2 Bft)
21.02.2014 22:00 1,6 C 92 % 1013,9 hPa 0,0 l/m 6,9 km/h (2 Bft) O-SO 112 0,4 C -0,8 C 9,2 km/h (2 Bft)
21.02.2014 22:05 1,5 C 92 % 1013,9 hPa 0,0 l/m 6,9 km/h (2 Bft) O-SO 112 0,3 C -0,9 C 12,6 km/h (3 Bft)
21.02.2014 22:10 1,4 C 91 % 1013,9 hPa 0,0 l/m 6,4 km/h (2 Bft) S 180 0,1 C -0,4 C 6,3 km/h (2 Bft)
21.02.2014 22:15 1,3 C 92 % 1013,9 hPa 0,0 l/m 5,8 km/h (2 Bft) S 180 0,1 C -0,2 C 6,0 km/h (2 Bft)
21.02.2014 22:20 1,3 C 92 % 1013,9 hPa 0,0 l/m 4,5 km/h (1 Bft) SO 135 0,1 C 0,3 C 4,2 km/h (1 Bft)
21.02.2014 22:25 1,3 C 92 % 1013,9 hPa 0,0 l/m 3,9 km/h (1 Bft) S 180 0,1 C 0,7 C 4,8 km/h (1 Bft)
21.02.2014 22:30 1,1 C 92 % 1014,4 hPa 0,0 l/m 3,2 km/h (1 Bft) S 180 -0,1 C 0,9 C 3,5 km/h (1 Bft)
21.02.2014 22:35 1,0 C 93 % 1014,4 hPa 0,0 l/m 2,4 km/h (1 Bft) O-SO 112 -0,0 C 1,3 C 2,7 km/h (1 Bft)
21.02.2014 22:40 1,0 C 93 % 1014,4 hPa 0,0 l/m 2,6 km/h (1 Bft) S-SO 157 -0,0 C 1,2 C 3,9 km/h (1 Bft)
21.02.2014 22:45 1,0 C 93 % 1014,4 hPa 0,0 l/m 3,1 km/h (1 Bft) NO 45 -0,0 C 0,8 C 3,2 km/h (1 Bft)
21.02.2014 22:50 1,0 C 93 % 1014,2 hPa 0,0 l/m 2,4 km/h (1 Bft) NO 45 -0,0 C 1,2 C 2,4 km/h (1 Bft)
21.02.2014 22:55 1,0 C 94 % 1014,2 hPa 0,0 l/m 2,3 km/h (1 Bft) O-SO 112 0,1 C 1,2 C 4,2 km/h (1 Bft)
21.02.2014 23:00 1,1 C 94 % 1014,2 hPa 0,0 l/m 3,1 km/h (1 Bft) O 90 0,2 C 0,9 C 3,2 km/h (1 Bft)
21.02.2014 23:05 1,1 C 94 % 1014,2 hPa 0,0 l/m 3,2 km/h (1 Bft) SO 135 0,2 C 0,9 C 4,2 km/h (1 Bft)
21.02.2014 23:10 1,2 C 94 % 1014,1 hPa 0,0 l/m 3,2 km/h (1 Bft) O-SO 112 0,3 C 1,1 C 2,6 km/h (1 Bft)
21.02.2014 23:15 1,2 C 94 % 1014,1 hPa 0,0 l/m 3,2 km/h (1 Bft) S-SO 157 0,3 C 1,1 C 3,9 km/h (1 Bft)
21.02.2014 23:20 1,3 C 94 % 1014,1 hPa 0,0 l/m 4,0 km/h (1 Bft) O-SO 112 0,4 C 0,7 C 5,1 km/h (1 Bft)
21.02.2014 23:25 1,4 C 94 % 1014,1 hPa 0,0 l/m 4,3 km/h (1 Bft) SO 135 0,5 C 0,7 C 5,6 km/h (1 Bft)
21.02.2014 23:30 1,2 C 94 % 1014,2 hPa 0,0 l/m 3,2 km/h (1 Bft) O-NO 67 0,3 C 1,3 C 4,5 km/h (1 Bft)
21.02.2014 23:35 1,2 C 94 % 1014,2 hPa 0,0 l/m 3,2 km/h (1 Bft) O-SO 112 0,3 C 1,2 C 5,3 km/h (1 Bft)
21.02.2014 23:40 1,2 C 93 % 1014,2 hPa 0,0 l/m 4,3 km/h (1 Bft) O-SO 112 0,2 C 0,7 C 6,3 km/h (2 Bft)
21.02.2014 23:45 1,2 C 93 % 1014,2 hPa 0,0 l/m 4,2 km/h (1 Bft) O-SO 112 0,2 C 0,6 C 4,3 km/h (1 Bft)
21.02.2014 23:50 1,2 C 93 % 1014,3 hPa 0,0 l/m 2,9 km/h (1 Bft) O 90 0,2 C 1,4 C 6,8 km/h (2 Bft)
21.02.2014 23:55 1,2 C 93 % 1014,3 hPa 0,0 l/m 3,4 km/h (1 Bft) O-SO 112 0,2 C 1,1 C 5,6 km/h (1 Bft)
_ Min-Zeit 02:40 05:25 07:45 - 10:45 - - 00:00 05:05 11:55
Minimum _ -2,4 C 86 % 1010,3 hPa - 0,0 km/h (0 Bft) - - -3,5 C -4,8 C 0,0 km/h (0 Bft)
_ Max-Zeit 12:20 10:45 22:45 23:55 13:30 - - 12:20 11:55 13:20
Maximum _ 6,6 C 96 % 1014,4 hPa 0,0 l/m 12,1 km/h
S (2 Bft)
- - 5,4 C 7,8 C 24,1 km/h
S (4 Bft)
Durchschnitt _ 1,8 C 94 % 1011,8 hPa #0,0 l/m 3,9 km/h (1 Bft) S - 0,9 C 0,9 C 5,0 km/h (1 Bft)